Location: *
(32.8140°S, 174.6161°E)
Time: 02:00:19
(UTC+00:00)

USA 238 - Pass Details

Date: 10 December 2019
Orbit: 1023 x 1189 km, 63.4° (Epoch: 16 January)

Event Time Altitude Azimuth Distance (km) Brightness Sun altitude
Rises 16:00:09 0° 211° (SSW) 3,906 6.7 -12.5°
Reaches altitude 10° 16:02:51 10° 211° (SSW) 2,922 6.1 -12.1°
Maximum altitude 16:09:46 88° 295° (WNW) 1,054 3.7 -10.9°
Drops below altitude 10° 16:16:25 10° 27° (NNE) 2,815 5.8 -9.8°
Sets 16:18:58 0° 27° (NNE) 3,755 6.5 -9.3°
